Regional Weather Roundup
Issued by NWS

Home | Current Version | Previous Version | Text Only | Print | Product List | Glossary On
Versions: 1 2 3 4 5 6 7 8 9 10 11 12 13 14 15 16 17 18 19 20 21 22 23 24 25 26 27 28 29 30 31 32 33 34 35 36 37 38 39 40 41 42 43 44 45 46 47 48 49 50
000
ASUS43 KMPX 261310
RWRMN
WEATHER ROUNDUP FOR MINNESOTA
NATIONAL WEATHER SERVICE TWIN CITIES/CHANHASSEN MN
700 AM CST FRI DEC 26 2014


NOTE: "FAIR" INDICATES FEW OR NO CLOUDS BELOW 12,000 FEET WITH NO
SIGNIFICANT WEATHER AND/OR OBSTRUCTIONS TO VISIBILITY. N/A MEANS
CURRENT SKY AND/OR WEATHER CONDITIONS ARE NOT AVAILABLE.

MNZ060>063-068>070-261400-
   Twin Cities Metro

CITY           SKY/WX    TMP DP  RH WIND       PRES   REMARKS
TWIN CITIES    CLOUDY    32  29  88 N14       29.93R WCI  22
ST PAUL        CLOUDY    33  30  88 N9        29.94R WCI  25
CRYSTAL        CLOUDY    32  29  88 N9        29.94R WCI  24
BLAINE         CLOUDY    34  34 100 N10       29.94R WCI  26
LAKEVILLE      CLOUDY    30  28  93 N8        29.92R FOG     WCI  23
EDEN PRAIRIE   CLOUDY    32  29  88 N12       29.92R WCI  23
SOUTH ST PAUL  CLOUDY    33  31  92 N7        29.92R WCI  27
LAKE ELMO      CLOUDY    32  32 100 N6        29.93R WCI  26
$$
MNZ001>005-007-008-013>017-022>024-027-028-261400-
   Northwest Minnesota

CITY           SKY/WX    TMP DP  RH WIND       PRES   REMARKS
BEMIDJI        CLOUDY    24  19  81 N7        30.02S WCI  15
HALLOCK        CLOUDY    21  19  93 N3        30.12R
ROSEAU         MOCLDY    18  14  86 N5        30.09R WCI  11
WARROAD        CLOUDY    19  16  86 W3        30.08R
THIEF RVR FALL CLOUDY    23  19  86 NW8       30.08R WCI  14
CROOKSTON      FLURRIES  23  19  86 N10       30.12R WCI  12
FOSSTON        CLOUDY    19  18  93 N6        30.06R WCI  11
DETROIT LAKES  CLOUDY    27  23  86 N8        30.04R WCI  18
MOORHEAD       CLOUDY    25  23  93 N13       30.10R WCI  13
PARK RAPIDS    CLOUDY    25  20  81 N10       30.01R WCI  15
MAHNOMEN       CLOUDY    23  20  90 N7        30.05R WCI  14
$$
MNZ006-009>011-018-025>026-261400-
   North Central Minnesota

CITY           SKY/WX    TMP DP  RH WIND       PRES   REMARKS
BAUDETTE       FLURRIES  21  17  84 NW8       30.05R WCI  11
FLAG ISLAND    PTCLDY    19  18  93 NW10      30.06R WCI   8
INTL FALLS     CLOUDY    22  18  85 NW12      30.02R WCI  10
WASKISH        CLOUDY    21  19  93 CALM      30.05R
BIG FORK       CLOUDY    25  21  86 NW5       30.02R WCI  19
LONGVILLE      CLOUDY    25  23  93 NW7       30.01R WCI  17
GRAND RAPIDS   CLOUDY    25  23  93 NW8       29.99R WCI  16
CRANE LAKE     CLOUDY    25  23  93 NW6       30.02R WCI  18
ORR            CLOUDY    25  21  86 NW3       29.98R
COOK           CLOUDY    25  25 100 CALM      30.00R
WALKER         CLOUDY    24  20  87 N6        30.02R WCI  16
$$
MNZ012-019>021-037-261400-
   Northeast Minnesota

CITY           SKY/WX    TMP DP  RH WIND       PRES   REMARKS
DULUTH         FLURRIES  27  21  78 N8        29.96R WCI  19
ELY            CLOUDY    25  23  93 CALM      29.97R
HIBBING        CLOUDY    27  23  85 N5        29.99R WCI  22
EVELETH        MOCLDY    27  23  86 CALM      29.99R
DULUTH HARBOR  FLURRIES  30  27  86 N8        30.01R WCI  23
TWO HARBORS    CLOUDY    30  25  80 N5        29.96R WCI  25
SILVER BAY     CLOUDY    28  25  86 N3        29.96R
GRAND MARAIS     N/A     31  23  72 CALM      29.99R
G MARAIS ARPRT CLOUDY    25  19  80 CALM      29.93S
$$
MNZ029>031-032-039>041-046>048-054>057-064-261400-
   West Central Minnesota

CITY           SKY/WX    TMP DP  RH WIND       PRES   REMARKS
FERGUS FALLS   CLOUDY    25  21  86 N6        30.08R WCI  18
WHEATON        CLOUDY    21  21 100 NW17      30.09R FOG     WCI   7
MORRIS         LGT SNOW  27  25  93 N9        30.03R WCI  17
ALEXANDRIA     LGT SNOW  26  23  88 N6        30.01R FOG     WCI  19
ELBOW LAKE     CLOUDY    26  23  90 N9        30.04R WCI  16
WADENA         CLOUDY    25  21  86 N7        30.01R WCI  17
GLENWOOD       LGT SNOW  27  25  93 N8        30.01R WCI  18
APPLETON       LGT SNOW  27  25  93 N14       30.03R WCI  15
BENSON         LGT SNOW  27  25  93 N9        30.02R WCI  17
ORTONVILLE     LGT SNOW  25  21  86 N15       30.04R WCI  12
MADISON          N/A     30  28  93 N14       30.04R WCI  20
WILLMAR        CLOUDY    28  25  86 N12       30.01R WCI  18
$$
MNZ033>034-036-042>043-049>051-058-059-261400-
   Central Minnesota

CITY           SKY/WX    TMP DP  RH WIND       PRES   REMARKS
ST CLOUD       CLOUDY    31  25  78 N10       29.98R WCI  22
SAUK CENTRE    LGT SNOW  26  24  91 N7        30.01R WCI  18
PAYNESVILLE    CLOUDY    25  24  95 NW7       29.99R WCI  17
AITKIN         CLOUDY    28  21  74 N8        29.98R WCI  20
PINE RIVER     CLOUDY    25  21  86 N9        30.04R WCI  15
BRAINERD       CLOUDY    27  20  75 N8        30.00R WCI  19
STAPLES        CLOUDY    25  21  86 N9        30.01R WCI  15
LONG PRAIRIE   FLURRIES  27  23  86 NW7       30.01R WCI  19
LITTLE FALLS   CLOUDY    28  23  80 NW6       30.01R WCI  22
LITCHFIELD     MIX PCPN  28  28 100 N9        29.98R WCI  20
BUFFALO        CLOUDY    30  27  89 N8        29.98R WCI  22
MAPLE LAKE     CLOUDY    30  29  94 N9        29.98R WCI  22
$$
MNZ037-044-045-052-053-261400-
   East Central Minnesota

CITY           SKY/WX    TMP DP  RH WIND       PRES   REMARKS
PRINCETON      MIX PCPN  30  28  93 N9        29.97R WCI  22
MORA           CLOUDY    28  25  86 N6        29.99R WCI  22
CAMBRIDGE      MIX PCPN  30  25  80 N3        29.94R
RUSH CITY      CLOUDY    30  28  92 N6        29.96R WCI  24
MOOSE LAKE     FLURRIES  28  25  86 N6        29.96S WCI  22
HINCKLEY       CLOUDY    30  28  93 N8        29.97R WCI  23
CLOQUET        CLOUDY    28  23  80 N7        29.98R WCI  21
MCGREGOR       CLOUDY    28  25  86 N8        29.99R WCI  20
$$
MNZ071>073-080-081-089-090-097-098-261400-
   Southwest Minnesota

CITY           SKY/WX    TMP DP  RH WIND       PRES   REMARKS
MONTEVIDEO     CLOUDY    27  27 100 N15       30.02R WCI  15
GRANITE FALLS  CLOUDY    27  26  94 NW13      30.02R FOG     WCI  17
CANBY          CLOUDY    27  25  92 N12       30.04R WCI  16
MARSHALL       CLOUDY    27  21  80 N17       30.00R WCI  14
REDWOOD FALLS  CLOUDY    30  27  88 N9G20     29.97R WCI  22
OLIVIA         LGT SNOW  28  28 100 N10       29.98R WCI  19
PIPESTONE      CLOUDY    25  25 100 N10G16    29.97R WCI  15
WINDOM         CLOUDY    30  28  93 N18       29.95R WCI  18
WORTHINGTON    CLOUDY    27 -20  12 N16       29.95R WCI  14
JACKSON        CLOUDY    32  30  93 N12       29.93R WCI  23
TRACY          CLOUDY    28  27  96 N14       29.99R FOG     WCI  16
SLAYTON        CLOUDY    26  25  97 N16G22    29.97R WCI  13
$$
MNZ065>067-074>077-082>085-091>093-261400-
   South Central Minnesota

CITY           SKY/WX    TMP DP  RH WIND       PRES   REMARKS
MANKATO        CLOUDY    32  28  86 N12       29.92R WCI  23
NEW ULM        CLOUDY    30  28  93 N9        29.95R WCI  22
ST JAMES       CLOUDY    32  30  93 N15       29.95R FOG     WCI  22
FAIRMONT       CLOUDY    32  28  86 N14       29.91R WCI  22
GLENCOE        CLOUDY    32  31  94 N10G17    29.95R WCI  24
FARIBAULT      CLOUDY    32  30  93 N8        29.91R FOG     WCI  25
OWATONNA       CLOUDY    32  30  93 N6        29.90R FOG     WCI  26
WASECA         CLOUDY    32  30  93 VRB9      29.92R FOG     WCI  24
ALBERT LEA     CLOUDY    30  30 100 N7        29.88R WCI  23
$$
MNZ078>079-086>088-094>096-261400-
   Southeast Minnesota

CITY           SKY/WX    TMP DP  RH WIND       PRES   REMARKS
ROCHESTER      CLEAR     25  25 100 CALM      29.87R FOG
RED WING       CLOUDY    34  30  86 NE3       29.90R
STANTON        CLOUDY    33  31  92 N9        29.90R FOG     WCI  25
DODGE CENTER   CLOUDY    28  28 100 N5        29.87R FOG     WCI  23
WINONA         PTCLDY    28  27  93 CALM      29.90R
AUSTIN         CLEAR     25  23  93 NW3       29.87R
PRESTON        CLEAR     26  25  96 SE3       29.87R FOG
$$
ABBREVIATIONS USED IN REMARKS
   TC - TEMPERATURES IN CELSIUS
  WCI - WIND CHILL INDEX
   HX - HEAT INDEX
  VSB - VISIBILITY
$$



USA.gov is the U.S. government's official web portal to all federal, state and local government web resources and services.